Tel Aviv, Israel

12:12 PM IDT on May 25, 2017 (GMT +0300)
Ben Gurion

Weather History for LLBG - October, 2011

Change the Weather History Date:

Monday, October 31, 2011

  Actual Average Record
Temperature  
Mean Temperature 66 °F -  
Max Temperature 76 °F 74 °F 86 °F (2003)
Min Temperature 57 °F 56 °F 53 °F (1996)
Cooling Degree Days 2    
Growing Degree Days 16 (Base 50)    
Moisture  
Dew Point 49 °F    
Average Humidity 51    
Maximum Humidity 72    
Minimum Humidity 26    
Precipitation  
Precipitation 0.00 in - - ()
Sea Level Pressure  
Sea Level Pressure 29.97 in    
Wind  
Wind Speed 3 mph ()    
Max Wind Speed 9 mph    
Max Gust Speed -    
Visibility 6.2 miles    
Events Rain    
Averages and records for this station are not official NWS values.
T = Trace of Precipitation, MM = Missing Value Source: Averaged Metar Reports

Daily Weather History Graph

Daily Weather History Graph

Search for Another Location

Airport or City:

Trip Planner

Search our weather history database for the weather conditions in past years. The results will help you decide how hot, cold, wet, or windy it might be!

Date:

Astronomy

Oct. 31, 2011 Rise Set
Actual Time 5:55 AM IST 4:51 PM IST
Civil Twilight 5:30 AM IST 5:17 PM IST
Nautical Twilight 5:01 AM IST 5:45 PM IST
Astronomical Twilight 4:33 AM IST 6:14 PM IST
Moon 10:38 AM IST (10/31) 9:12 PM IST (10/31)
Length of Visible Light 11h 46m
Length of Day
10h 56m
Waxing Crescent, 27% of the Moon is Illuminated
Oct 31
Waxing Crescent
Nov 2
First Quarter
Nov 10
Full
Nov 18
Last Quarter
Nov 25
New

Hourly Weather History & Observations

Time (IST) Temp. Dew Point Humidity Pressure Visibility Wind Dir Wind Speed Gust Speed Precip Events Conditions
12:50 AM 64.4 °F 51.8 °F 64% 29.95 in 6.2 mi NNE 1.2 mph - N/A   Scattered Clouds
1:50 AM 64.4 °F 53.6 °F 68% 29.95 in 6.2 mi NNW 1.2 mph - N/A   Mostly Cloudy
2:00 AM 64 °F 54 °F 61% 29.94 in 6 mi NNW 1.2 mph - -   Partly Cloudy
2:50 AM 64.4 °F 53.6 °F 68% 29.92 in 6.2 mi ENE 2.3 mph - N/A   Scattered Clouds
3:50 AM 62.6 °F 51.8 °F 68% 29.92 in 6.2 mi ESE 4.6 mph - N/A   Partly Cloudy
4:50 AM 60.8 °F 50.0 °F 68% 29.95 in - NE 2.3 mph - N/A   Clear
5:50 AM 59.0 °F 50.0 °F 72% 29.95 in - SSE 4.6 mph - N/A   Clear
6:50 AM 60.8 °F 50.0 °F 68% 29.95 in 6.2 mi SE 3.5 mph - N/A   Partly Cloudy
7:50 AM 64.4 °F 51.8 °F 64% 29.98 in 6.2 mi SSE 3.5 mph - N/A   Partly Cloudy
8:00 AM 65 °F 51 °F 52% 29.99 in 6 mi SSE 3.5 mph - -   Scattered Clouds
8:50 AM 69.8 °F 50.0 °F 49% 29.98 in 6.2 mi SSE 3.5 mph - N/A   Partly Cloudy
9:50 AM 71.6 °F 50.0 °F 46% 29.98 in 6.2 mi WSW 3.5 mph - N/A   Scattered Clouds
10:50 AM 71.6 °F 50.0 °F 46% 29.98 in 6.2 mi NW 4.6 mph - N/A Rain Light Rain
11:50 AM 71.6 °F 46.4 °F 41% 29.95 in 6.2 mi West 5.8 mph - N/A   Mostly Cloudy
12:50 PM 73.4 °F 48.2 °F 41% 29.95 in 6.2 mi West 4.6 mph - N/A   Scattered Clouds
1:50 PM 75.2 °F 46.4 °F 36% 29.95 in 6.2 mi NW 9.2 mph - N/A   Partly Cloudy
2:00 PM 75 °F 47 °F 26% 29.96 in 6 mi NW 9.2 mph - -   Partly Cloudy
2:50 PM 73.4 °F 46.4 °F 38% 29.95 in 6.2 mi NW 9.2 mph - N/A   Partly Cloudy
3:50 PM 73.4 °F 50.0 °F 44% 29.95 in 6.2 mi NW 8.1 mph - N/A   Scattered Clouds
4:50 PM 71.6 °F 48.2 °F 43% 29.98 in 6.2 mi NNW 6.9 mph - N/A   Scattered Clouds
5:50 PM 69.8 °F 48.2 °F 46% 29.98 in 6.2 mi North 3.5 mph - N/A   Scattered Clouds
6:50 PM 69.8 °F 48.2 °F 46% 30.01 in 6.2 mi NNE 3.5 mph - N/A   Scattered Clouds
7:50 PM 68.0 °F 48.2 °F 49% 30.01 in - ENE 3.5 mph - N/A   Clear
8:00 PM 68 °F 47 °F 37% 30.01 in 6 mi ENE 3.5 mph - -   Mostly Cloudy
8:50 PM 68.0 °F 46.4 °F 46% 30.01 in - ENE 3.5 mph - N/A   Clear
9:50 PM 66.2 °F 46.4 °F 49% 30.01 in - East 2.3 mph - N/A   Clear
10:50 PM 64.4 °F 44.6 °F 49% 30.01 in - NE 3.5 mph - N/A   Clear
11:50 PM 62.6 °F 44.6 °F 52% 30.01 in - ENE 2.3 mph - N/A   Clear